Other Public Products
Issued by NWS Charleston, SC

Current Version | Previous Version | Text Only | Print | Product List | Glossary On
Versions: 1 2 3 4 5 6 7 8 9 10 11 12 13 14 15 16 17 18 19 20 21 22 23 24 25 26 27 28 29 30 31 32 33 34 35 36 37 38 39 40 41 42 43 44 45 46 47 48 49 50
075 FPUS82 KCHS 221212 OPUCHS TEST...KCHS/KSAV Gateway Observations...TEST National Weather Service Charleston SC 700 AM EST THU FEB 22 2018 NOTE: "fair" indicates few or no clouds below 12,000 feet with no significant weather and/or obstructions to visibility. SCZ050-WAZ558-NCZ071-TXZ119-213-PAZ071-DCZ001-FLZ074-172-MI076- NYZ176-178-MAZ016-IL014-TNZ027-NJZ106-GAZ044-MD014-221300- ...Gateway Observations for Charleston International... CITY SKY/WX TMP DP RH WIND PRES REMARKS Chas Airport FAIR 62 61 96 CALM 30.46R FOG 6HR MIN TEMP: 60; 6HR MAX TEMP: 67; Seattle FAIR 27 23 85 N9 30.19R WCI 18 6HR MIN TEMP: 27; 6HR MAX TEMP: 32; 6HR PCP: TRACE; Charlotte CLOUDY 66 64 93 S15G21 30.44R 6HR MIN TEMP: 63; 6HR MAX TEMP: 66; Dallas DFW DRZL/FOG 35 34 96 N12 30.26F VSB 1/2 WCI 27 6HR MIN TEMP: 34; 6HR MAX TEMP: 36; 6HR PCP: TRACE; Dallas Love CLOUDY 34 34 100 N13 30.28F FOG WCI 25 6HR MIN TEMP: 34; 6HR MAX TEMP: 36; 6HR PCP: TRACE; Philladelphia CLOUDY 51 36 56 NE13 30.49S 6HR MIN TEMP: 51; 6HR MAX TEMP: 57; Wash National CLOUDY 56 41 57 NE9 30.45R 6HR MIN TEMP: 56; 6HR MAX TEMP: 67; Baltimore CLOUDY 53 33 46 NE16 30.45S 6HR MIN TEMP: 53; 6HR MAX TEMP: 65; Miami CLOUDY 74 69 85 E13 30.32R 6HR MIN TEMP: 72; 6HR MAX TEMP: 75; 6HR PCP: 0.01; Detroit CLOUDY 31 23 72 NE10 30.58S WCI 22 6HR MIN TEMP: 31; 6HR MAX TEMP: 32; Newark LGT RAIN 45 37 73 NE17 30.53F 6HR MIN TEMP: 45; 6HR MAX TEMP: 57; 6HR PCP: TRACE; Laguardia CLOUDY 46 36 68 NE10 30.55S 6HR MIN TEMP: 45; 6HR MAX TEMP: 57; 6HR PCP: TRACE; J F K CLOUDY 46 36 68 N15 30.53F 6HR MIN TEMP: 46; 6HR MAX TEMP: 57; Boston Logan CLOUDY 42 22 44 N9 30.62R 6HR MIN TEMP: 42; 6HR MAX TEMP: 53; 6HR PCP: TRACE; Ft. Lauderdale CLOUDY 75 69 81 E17 30.32R 6HR MIN TEMP: 73; 6HR MAX TEMP: 76; 6HR PCP: TRACE; Chicago O`Hare CLOUDY 33 26 75 NE13 30.54R WCI 24 6HR MIN TEMP: 29; 6HR MAX TEMP: 33; Chicago Midway CLOUDY 34 27 75 NE14 30.53S WCI 25 6HR MIN TEMP: 31; 6HR MAX TEMP: 34; Houston Bush CLOUDY 55 54 96 N7 30.19R FOG 6HR MIN TEMP: 50; 6HR MAX TEMP: 55; 6HR PCP: 0.16; Houston Hobby CLOUDY 54 54 100 N7 30.18R FOG 6HR MIN TEMP: 52; 6HR MAX TEMP: 55; 6HR PCP: 0.01; Nashville LGT RAIN 52 51 97 SE8 30.27F 6HR MIN TEMP: 51; 6HR MAX TEMP: 53; 6HR PCP: 0.20; Atlanta MOCLDY 63 63 100 SE5 30.42R 6HR MIN TEMP: 63; 6HR MAX TEMP: 67; $$ GAZ044-118-TXZ119-213-NCZ071-DCZ001-MDZ014-506-PAZ021-071-NJZ106- NYZ176-178-MAZ106-OHZ011-021-055-MIZ076-KYZ091-ILZ014-INZ047- MNZ060-ONZ431-221300- ...Gateway Observations for Savannah International... CITY SKY/WX TMP DP RH WIND PRES REMARKS Savannah Arpt FOG 60 60 100 CALM 30.45R VSB 1/2 6HR MIN TEMP: 60; 6HR MAX TEMP: 67; Atlanta MOCLDY 63 63 100 SE5 30.42R 6HR MIN TEMP: 63; 6HR MAX TEMP: 67; Charlotte CLOUDY 66 64 93 S15G21 30.44R 6HR MIN TEMP: 63; 6HR MAX TEMP: 66; Dallas DFW DRZL/FOG 35 34 96 N12 30.26F VSB 1/2 WCI 27 6HR MIN TEMP: 34; 6HR MAX TEMP: 36; 6HR PCP: TRACE; Houston Bush CLOUDY 55 54 96 N7 30.19R FOG 6HR MIN TEMP: 50; 6HR MAX TEMP: 55; 6HR PCP: 0.16; Wash National CLOUDY 56 41 57 NE9 30.45R 6HR MIN TEMP: 56; 6HR MAX TEMP: 67; Wash Dulles CLOUDY 54 41 61 NE8 30.45R 6HR MIN TEMP: 54; 6HR MAX TEMP: 65; Baltimore CLOUDY 53 33 46 NE16 30.45S 6HR MIN TEMP: 53; 6HR MAX TEMP: 65; Philadelphia CLOUDY 51 36 56 NE13 30.49S 6HR MIN TEMP: 51; 6HR MAX TEMP: 57; Newark LGT RAIN 45 37 73 NE17 30.53F 6HR MIN TEMP: 45; 6HR MAX TEMP: 57; 6HR PCP: TRACE; Laguardia CLOUDY 46 36 68 NE10 30.55S 6HR MIN TEMP: 45; 6HR MAX TEMP: 57; 6HR PCP: TRACE; J F K CLOUDY 46 36 68 N15 30.53F 6HR MIN TEMP: 46; 6HR MAX TEMP: 57; Boston CLOUDY 42 22 44 N9 30.62R 6HR MIN TEMP: 42; 6HR MAX TEMP: 53; 6HR PCP: TRACE; Pittsburg LGT RAIN 42 37 82 NE13 30.46F 6HR MIN TEMP: 41; 6HR MAX TEMP: 43; 6HR PCP: 0.34; Akron RAIN 34 30 85 NE10 30.50R WCI 26 6HR MIN TEMP: 34; 6HR MAX TEMP: 34; 6HR PCP: 0.14; Cleveland FLURRIES 34 30 85 NE9 30.56S WCI 27 6HR MIN TEMP: 32; 6HR MAX TEMP: 34; 6HR PCP: 0.04; Cincinnati LGT RAIN 39 39 100 NE20 30.35F FOG WCI 29 6HR MIN TEMP: 38; 6HR MAX TEMP: 42; 6HR PCP: 1.03; Columbus LGT RAIN 37 36 99 NE15 30.42S WCI 27 Detroit CLOUDY 31 23 72 NE10 30.58S WCI 22 6HR MIN TEMP: 31; 6HR MAX TEMP: 32; Chicago O`Hare CLOUDY 33 26 75 NE13 30.54R WCI 24 6HR MIN TEMP: 29; 6HR MAX TEMP: 33; Minneapolis CLOUDY 11 6 81 E3 30.61R 6HR MIN TEMP: 7; 6HR MAX TEMP: 12; Indianapolis CLOUDY 38 36 92 NE14 30.36F WCI 30 6HR MIN TEMP: 38; 6HR MAX TEMP: 39; 6HR PCP: 0.22; Toronto Canada MOCLDY 27 21 80 NE8 30.63F WCI 18 $$

USA.gov is the U.S. government's official web portal to all federal, state and local government web resources and services.